Location: Wangen+im+Allg�u
(47.7098°N, 9.8383°E)
Time: 17:06:42
(UTC+02:00)

ISS - Visible Passes

Search period start: 29 March 2017 00:00
Search period end: 08 April 2017 00:00
Orbit: 399 x 409 km, 51.6° (Epoch: 30 March)

Date Brightness Start Highest point End Pass type
(mag) Time Alt. Az. Time Alt. Az. Time Alt. Az.
29 Mar -3.9 21:41:52 10° WSW 21:45:04 86° SW 21:45:04 86° SW visible
30 Mar -3.7 20:49:37 10° SW 20:52:49 57° SSE 20:55:19 15° ENE visible
30 Mar -1.8 22:26:12 10° W 22:28:01 28° WNW 22:28:01 28° WNW visible
31 Mar -3.3 21:33:41 10° W 21:36:55 58° NNW 21:38:04 34° NE visible
31 Mar -0.4 23:10:36 10° WNW 23:10:45 11° WNW 23:10:45 11° WNW visible
01 Apr -3.8 20:41:14 10° WSW 20:44:29 81° NNW 20:47:46 10° ENE visible
01 Apr -2.3 22:18:06 10° WNW 22:20:40 36° NNW 22:20:40 36° NNW visible
02 Apr -2.8 21:25:33 10° W 21:28:42 43° N 21:30:28 22° NE visible
02 Apr -0.8 23:02:22 10° WNW 23:03:08 16° WNW 23:03:08 16° WNW visible
03 Apr -3.1 20:32:59 10° W 20:36:12 53° NNW 20:39:25 10° ENE visible
03 Apr -2.7 22:09:54 10° WNW 22:12:52 40° N 22:12:52 40° N visible
04 Apr -2.7 21:17:23 10° WNW 21:20:28 39° N 21:22:32 18° ENE visible
04 Apr -1.2 22:54:00 10° WNW 22:55:11 20° WNW 22:55:11 20° WNW visible
05 Apr -2.8 20:24:48 10° W 20:27:55 41° N 20:31:04 10° ENE visible
05 Apr -3.3 22:01:33 10° WNW 22:04:46 50° NNE 22:04:48 50° NNE visible
06 Apr -2.9 21:09:04 10° WNW 21:12:12 42° N 21:14:25 17° ENE visible
06 Apr -1.6 22:45:34 10° WNW 22:47:03 24° WNW 22:47:03 24° WNW visible
07 Apr -3.9 21:53:06 10° WNW 21:56:23 74° NNE 21:56:38 68° ENE visible
